FIN4CE EGLL-EFHK

Flight info

Callsign FIN4CE
Flight time 2h 18m
Altitude 37000
Route BPK Q295 MATCH P144 SAMHO DCT LARGA DCT SOPTO DCT RIRIP Y364 LAKUT
Aircraft MD11/H-SDE1E2E3FGHIJ2J3J4J5M1RWXY/LB1D1

Departure

Time 2026-04-25 19:28
Airport London Heathrow Airport (EGLL)

Arrival

Time 2026-04-25 21:47
Airport Helsinki Vantaa Airport (EFHK)
Time Latitude Longitude Altitude Speed Heading
2026-04-25 18:44 51.46840 -0.45573 81 ft 0 kts 360°
2026-04-25 19:05 51.46830 -0.45572 82 ft 2 kts 360°
2026-04-25 19:06 51.46821 -0.45572 82 ft 2 kts 359°
2026-04-25 19:06 51.46792 -0.45561 82 ft 2 kts 334°
2026-04-25 19:06 51.46780 -0.45549 82 ft 2 kts 323°
2026-04-25 19:07 51.46760 -0.45514 82 ft 2 kts 301°
2026-04-25 19:07 51.46753 -0.45493 82 ft 2 kts 290°
2026-04-25 19:08 51.46748 -0.45453 82 ft 0 kts 270°
2026-04-25 19:08 51.46748 -0.45449 82 ft 0 kts 269°
2026-04-25 19:11 51.46748 -0.45453 82 ft 1 kts 269°
2026-04-25 19:12 51.46748 -0.45486 82 ft 4 kts 270°
2026-04-25 19:12 51.46748 -0.45549 82 ft 7 kts 270°
2026-04-25 19:12 51.46747 -0.45644 82 ft 9 kts 270°
2026-04-25 19:12 51.46747 -0.45771 82 ft 12 kts 270°
2026-04-25 19:13 51.46748 -0.45927 82 ft 15 kts 270°
2026-04-25 19:13 51.46748 -0.46118 82 ft 18 kts 270°
2026-04-25 19:13 51.46747 -0.46338 82 ft 21 kts 270°
2026-04-25 19:13 51.46746 -0.46581 82 ft 20 kts 271°
2026-04-25 19:14 51.46747 -0.46693 82 ft 0 kts 271°
2026-04-25 19:18 51.46747 -0.46698 82 ft 1 kts 271°
2026-04-25 19:18 51.46748 -0.46741 82 ft 6 kts 271°
2026-04-25 19:18 51.46748 -0.46852 82 ft 12 kts 270°
2026-04-25 19:18 51.46747 -0.47009 82 ft 15 kts 270°
2026-04-25 19:19 51.46746 -0.47196 82 ft 18 kts 270°
2026-04-25 19:19 51.46745 -0.47411 82 ft 20 kts 270°
2026-04-25 19:19 51.46745 -0.47653 82 ft 22 kts 270°
2026-04-25 19:19 51.46744 -0.47828 82 ft 23 kts 269°
2026-04-25 19:20 51.46742 -0.48053 82 ft 0 kts 270°
2026-04-25 19:20 51.46742 -0.48064 82 ft 2 kts 270°
2026-04-25 19:20 51.46742 -0.48142 82 ft 11 kts 270°
2026-04-25 19:21 51.46742 -0.48298 82 ft 16 kts 270°
2026-04-25 19:21 51.46736 -0.48710 82 ft 11 kts 252°
2026-04-25 19:21 51.46694 -0.48744 82 ft 7 kts 186°
2026-04-25 19:22 51.46632 -0.48753 82 ft 10 kts 191°
2026-04-25 19:22 51.46617 -0.48759 82 ft 0 kts 199°
2026-04-25 19:23 51.46612 -0.48762 82 ft 2 kts 199°
2026-04-25 19:23 51.46539 -0.48790 82 ft 9 kts 179°
2026-04-25 19:23 51.46487 -0.48740 82 ft 8 kts 121°
2026-04-25 19:24 51.46480 -0.48706 82 ft 0 kts 99°
2026-04-25 19:24 51.46478 -0.48685 82 ft 3 kts 96°
2026-04-25 19:24 51.46478 -0.48671 82 ft 0 kts 92°
2026-04-25 19:27 51.46477 -0.48629 82 ft 12 kts 91°
2026-04-25 19:27 51.46477 -0.48083 82 ft 87 kts 90°
2026-04-25 19:28 51.46483 -0.46732 83 ft 153 kts 90°
2026-04-25 19:28 51.46487 -0.44811 386 ft 176 kts 91°
2026-04-25 19:28 51.46468 -0.42916 1108 ft 174 kts 89°
2026-04-25 19:28 51.46699 -0.41070 1823 ft 172 kts 60°
2026-04-25 19:29 51.47422 -0.39550 2537 ft 176 kts 45°
2026-04-25 19:29 51.48273 -0.38229 3404 ft 179 kts 44°
2026-04-25 19:29 51.49194 -0.36734 4007 ft 201 kts 47°
2026-04-25 19:29 51.50173 -0.34959 4670 ft 226 kts 51°
2026-04-25 19:30 51.51212 -0.32893 5425 ft 251 kts 52°
2026-04-25 19:30 51.52293 -0.30613 6412 ft 268 kts 58°
2026-04-25 19:30 51.53088 -0.27928 7509 ft 280 kts 70°
2026-04-25 19:30 51.53681 -0.24893 7872 ft 285 kts 75°
2026-04-25 19:31 51.54185 -0.21849 7869 ft 283 kts 75°
2026-04-25 19:31 51.54980 -0.18982 7869 ft 279 kts 50°
2026-04-25 19:31 51.56508 -0.17174 8848 ft 279 kts 18°
2026-04-25 19:31 51.58374 -0.16528 10010 ft 286 kts
2026-04-25 19:32 51.60360 -0.16070 10903 ft 302 kts 19°
2026-04-25 19:32 51.62279 -0.14347 11488 ft 329 kts 42°
2026-04-25 19:32 51.63756 -0.11420 12005 ft 357 kts 59°
2026-04-25 19:32 51.64572 -0.09033 12335 ft 376 kts 63°
2026-04-25 19:33 51.66208 -0.03945 13608 ft 395 kts 61°
2026-04-25 19:33 51.67590 -0.00086 14630 ft 403 kts 59°
2026-04-25 19:33 51.69076 0.03707 14879 ft 406 kts 57°
2026-04-25 19:33 51.70634 0.07474 14885 ft 403 kts 56°
2026-04-25 19:34 51.72222 0.11252 15562 ft 408 kts 56°
2026-04-25 19:34 51.73792 0.15018 16809 ft 411 kts 56°
2026-04-25 19:34 51.75372 0.18839 17844 ft 419 kts 56°
2026-04-25 19:34 51.77056 0.22673 18870 ft 426 kts 52°
2026-04-25 19:35 51.78937 0.26366 19681 ft 432 kts 48°
2026-04-25 19:35 51.81030 0.29913 19891 ft 435 kts 44°
2026-04-25 19:35 51.83198 0.33312 19937 ft 434 kts 43°
2026-04-25 19:35 51.85367 0.36662 19957 ft 434 kts 44°
2026-04-25 19:36 51.87529 0.40045 20549 ft 437 kts 44°
2026-04-25 19:36 51.89708 0.43479 21627 ft 441 kts 44°
2026-04-25 19:36 51.91879 0.46919 22519 ft 448 kts 44°
2026-04-25 19:36 51.94115 0.50471 23415 ft 455 kts 44°
2026-04-25 19:37 51.96390 0.54085 24296 ft 461 kts 44°
2026-04-25 19:37 51.98689 0.57730 25141 ft 467 kts 43°
2026-04-25 19:37 52.01091 0.61283 25973 ft 473 kts 40°
2026-04-25 19:37 52.03627 0.64638 26783 ft 479 kts 37°
2026-04-25 19:38 52.06294 0.67868 27589 ft 484 kts 36°
2026-04-25 19:38 52.09041 0.71028 28382 ft 490 kts 35°
2026-04-25 19:38 52.11869 0.74260 29291 ft 493 kts 35°
2026-04-25 19:38 52.14665 0.77466 30325 ft 493 kts 35°
2026-04-25 19:39 52.17471 0.80697 31404 ft 491 kts 36°
2026-04-25 19:39 52.20245 0.83901 32453 ft 489 kts 36°
2026-04-25 19:39 52.23001 0.87090 33458 ft 486 kts 35°
2026-04-25 19:39 52.25734 0.90253 34410 ft 484 kts 35°
2026-04-25 19:40 52.28462 0.93405 35315 ft 482 kts 35°
2026-04-25 19:40 52.31156 0.96517 36175 ft 480 kts 35°
2026-04-25 19:40 52.33896 0.99678 36727 ft 482 kts 35°
2026-04-25 19:40 52.36629 1.02842 36864 ft 482 kts 36°
2026-04-25 19:41 52.42014 1.09212 36948 ft 475 kts 36°
2026-04-25 19:41 52.46460 1.14508 36961 ft 473 kts 36°
2026-04-25 19:42 52.52645 1.21858 36980 ft 474 kts 36°
2026-04-25 19:42 52.57970 1.28169 36987 ft 474 kts 36°
2026-04-25 19:43 52.63330 1.34518 36991 ft 474 kts 35°
2026-04-25 19:43 52.68680 1.40850 36995 ft 474 kts 35°
2026-04-25 19:44 52.74015 1.47166 36995 ft 474 kts 36°
2026-04-25 19:44 52.79318 1.53569 36997 ft 474 kts 36°
2026-04-25 19:45 52.84598 1.59989 36999 ft 474 kts 36°
2026-04-25 19:45 52.89898 1.66423 37000 ft 474 kts 36°
2026-04-25 19:46 52.95193 1.72843 36999 ft 474 kts 36°
2026-04-25 19:46 53.00503 1.79272 37001 ft 474 kts 36°
2026-04-25 19:47 53.05839 1.85729 37001 ft 474 kts 36°
2026-04-25 19:47 53.11142 1.92144 37000 ft 474 kts 36°
2026-04-25 19:48 53.16461 1.98577 37001 ft 474 kts 36°
2026-04-25 19:48 53.21678 2.04872 37001 ft 474 kts 36°
2026-04-25 19:49 53.26228 2.10362 37002 ft 474 kts 36°
2026-04-25 19:49 53.32440 2.17849 37002 ft 474 kts 36°
2026-04-25 19:50 53.40440 2.27490 37000 ft 474 kts 36°
2026-04-25 19:51 53.45711 2.34096 37002 ft 474 kts 37°
2026-04-25 19:51 53.50929 2.40737 37003 ft 474 kts 37°
2026-04-25 19:52 53.56177 2.47380 37002 ft 474 kts 36°
2026-04-25 19:52 53.61444 2.54020 37002 ft 474 kts 36°
2026-04-25 19:53 53.66714 2.60657 37001 ft 474 kts 36°
2026-04-25 19:53 53.71976 2.67286 37002 ft 474 kts 37°
2026-04-25 19:54 53.77243 2.73919 37002 ft 474 kts 37°
2026-04-25 19:54 53.82534 2.80577 37001 ft 474 kts 37°
2026-04-25 19:55 53.87812 2.87210 37002 ft 474 kts 37°
2026-04-25 19:55 53.93068 2.93806 37000 ft 474 kts 37°
2026-04-25 19:56 53.98370 3.00459 37001 ft 474 kts 36°
2026-04-25 19:56 54.03664 3.07092 37000 ft 474 kts 36°
2026-04-25 19:57 54.08926 3.13748 37000 ft 474 kts 37°
2026-04-25 19:57 54.14110 3.20591 37002 ft 474 kts 38°
2026-04-25 19:58 54.19320 3.27491 37001 ft 474 kts 37°
2026-04-25 19:58 54.24509 3.34323 37002 ft 474 kts 37°
2026-04-25 19:59 54.29735 3.41186 37001 ft 474 kts 37°
2026-04-25 19:59 54.34957 3.48043 36999 ft 474 kts 37°
2026-04-25 20:00 54.40190 3.54912 37000 ft 474 kts 37°
2026-04-25 20:00 54.45403 3.61750 36999 ft 474 kts 37°
2026-04-25 20:01 54.53214 3.71984 36998 ft 474 kts 37°
2026-04-25 20:01 54.58450 3.78832 37000 ft 474 kts 37°
2026-04-25 20:02 54.63699 3.85690 36999 ft 474 kts 37°
2026-04-25 20:02 54.68948 3.92545 37000 ft 474 kts 37°
2026-04-25 20:03 54.74168 3.99378 36998 ft 474 kts 38°
2026-04-25 20:03 54.79343 4.06386 36995 ft 474 kts 39°
2026-04-25 20:04 54.83746 4.14731 37023 ft 473 kts 55°
2026-04-25 20:04 54.87431 4.24195 36999 ft 474 kts 55°
2026-04-25 20:05 54.91206 4.33484 36995 ft 474 kts 53°
2026-04-25 20:05 54.95110 4.42683 36995 ft 474 kts 53°
2026-04-25 20:06 54.99004 4.51863 36998 ft 474 kts 53°
2026-04-25 20:06 55.02913 4.61071 37000 ft 474 kts 53°
2026-04-25 20:07 55.06836 4.70300 37002 ft 474 kts 53°
2026-04-25 20:07 55.10734 4.79457 37002 ft 474 kts 53°
2026-04-25 20:08 55.14659 4.88667 37002 ft 474 kts 53°
2026-04-25 20:08 55.18599 4.97888 37000 ft 474 kts 53°
2026-04-25 20:09 55.22536 5.07091 37001 ft 474 kts 53°
2026-04-25 20:09 55.26476 5.16268 37000 ft 474 kts 53°
2026-04-25 20:10 55.30428 5.25461 36999 ft 474 kts 53°
2026-04-25 20:10 55.34339 5.34754 36998 ft 474 kts 54°
2026-04-25 20:11 55.38094 5.44158 37000 ft 474 kts 54°
2026-04-25 20:11 55.41871 5.53622 36999 ft 474 kts 54°
2026-04-25 20:12 55.45683 5.63096 36998 ft 474 kts 54°
2026-04-25 20:12 55.48841 5.70915 36999 ft 474 kts 54°
2026-04-25 20:13 55.53287 5.81904 37000 ft 474 kts 54°
2026-04-25 20:13 55.57122 5.91370 37000 ft 474 kts 54°
2026-04-25 20:14 55.60940 6.00778 36999 ft 474 kts 54°
2026-04-25 20:14 55.64769 6.10194 37000 ft 474 kts 54°
2026-04-25 20:15 55.68615 6.19636 37000 ft 474 kts 54°
2026-04-25 20:15 55.72469 6.29066 37000 ft 474 kts 53°
2026-04-25 20:16 55.76323 6.38476 37000 ft 474 kts 53°
2026-04-25 20:16 55.80193 6.47911 36999 ft 474 kts 53°
2026-04-25 20:17 55.83960 6.57527 37000 ft 474 kts 55°
2026-04-25 20:17 55.87615 6.67187 37001 ft 474 kts 56°
2026-04-25 20:18 55.91311 6.76891 37001 ft 474 kts 56°
2026-04-25 20:18 55.95017 6.86551 37001 ft 474 kts 56°
2026-04-25 20:19 55.98748 6.96248 37002 ft 474 kts 55°
2026-04-25 20:19 56.02469 7.05906 37000 ft 474 kts 55°
2026-04-25 20:20 56.06194 7.15561 37001 ft 474 kts 55°
2026-04-25 20:20 56.09917 7.25193 37000 ft 474 kts 55°
2026-04-25 20:21 56.13678 7.34904 36998 ft 474 kts 55°
2026-04-25 20:21 56.17408 7.44518 36999 ft 474 kts 54°
2026-04-25 20:22 56.20566 7.52624 36999 ft 474 kts 54°
2026-04-25 20:22 56.24970 7.63914 36998 ft 474 kts 54°
2026-04-25 20:23 56.28722 7.73561 36996 ft 474 kts 56°
2026-04-25 20:23 56.32323 7.83437 37001 ft 474 kts 57°
2026-04-25 20:24 56.35900 7.93391 37000 ft 474 kts 57°
2026-04-25 20:24 56.39497 8.03313 36999 ft 474 kts 57°
2026-04-25 20:25 56.43121 8.13244 37001 ft 474 kts 56°
2026-04-25 20:25 56.46740 8.23139 37001 ft 474 kts 56°
2026-04-25 20:26 56.50356 8.33009 37001 ft 474 kts 56°
2026-04-25 20:26 56.53992 8.42921 37001 ft 474 kts 56°
2026-04-25 20:27 56.57639 8.52842 37001 ft 474 kts 56°
2026-04-25 20:27 56.61299 8.62780 37000 ft 474 kts 56°
2026-04-25 20:28 56.64932 8.72620 37001 ft 474 kts 56°
2026-04-25 20:28 56.68621 8.82564 37000 ft 474 kts 56°
2026-04-25 20:29 56.72300 8.92477 37000 ft 474 kts 56°
2026-04-25 20:29 56.75904 9.02393 37000 ft 474 kts 58°
2026-04-25 20:30 56.79377 9.12552 37000 ft 474 kts 58°
2026-04-25 20:30 56.82859 9.22758 37003 ft 474 kts 58°
2026-04-25 20:31 56.86351 9.32884 37002 ft 474 kts 57°
2026-04-25 20:31 56.89851 9.42987 37002 ft 474 kts 57°
2026-04-25 20:32 56.93399 9.53204 37003 ft 474 kts 57°
2026-04-25 20:32 56.96921 9.63347 37003 ft 474 kts 57°
2026-04-25 20:33 57.00431 9.73422 37002 ft 474 kts 57°
2026-04-25 20:33 57.03392 9.81904 37002 ft 474 kts 57°
2026-04-25 20:34 57.07544 9.93773 37002 ft 474 kts 57°
2026-04-25 20:34 57.11096 10.03899 37004 ft 474 kts 57°
2026-04-25 20:35 57.14682 10.14045 37003 ft 474 kts 57°
2026-04-25 20:35 57.18242 10.24182 37000 ft 474 kts 57°
2026-04-25 20:36 57.21692 10.34444 37004 ft 474 kts 59°
2026-04-25 20:36 57.25043 10.44865 37009 ft 474 kts 59°
2026-04-25 20:37 57.28439 10.55299 37004 ft 474 kts 58°
2026-04-25 20:37 57.31826 10.65689 37008 ft 474 kts 59°
2026-04-25 20:38 57.35242 10.76062 37005 ft 474 kts 59°
2026-04-25 20:38 57.38646 10.86443 37012 ft 474 kts 59°
2026-04-25 20:39 57.42068 10.96832 36995 ft 474 kts 58°
2026-04-25 20:39 57.44931 11.05498 36998 ft 474 kts 58°
2026-04-25 20:40 57.48943 11.17619 37000 ft 474 kts 58°
2026-04-25 20:40 57.52382 11.27991 37000 ft 474 kts 58°
2026-04-25 20:41 57.55830 11.38350 36999 ft 474 kts 58°
2026-04-25 20:41 57.59314 11.48770 37001 ft 474 kts 58°
2026-04-25 20:42 57.62771 11.59160 36997 ft 474 kts 58°
2026-04-25 20:42 57.66069 11.69803 37001 ft 474 kts 60°
2026-04-25 20:43 57.69292 11.80413 37001 ft 474 kts 60°
2026-04-25 20:43 57.72575 11.91095 37001 ft 474 kts 60°
2026-04-25 20:44 57.75867 12.01738 37000 ft 474 kts 60°
2026-04-25 20:44 57.79150 12.12313 37000 ft 474 kts 59°
2026-04-25 20:45 57.82457 12.22950 37002 ft 474 kts 59°
2026-04-25 20:45 57.85766 12.33579 37002 ft 474 kts 59°
2026-04-25 20:46 57.89086 12.44205 37002 ft 474 kts 59°
2026-04-25 20:46 57.92424 12.54865 37000 ft 474 kts 59°
2026-04-25 20:47 57.95781 12.65551 37000 ft 474 kts 59°
2026-04-25 20:47 57.99115 12.76127 37002 ft 474 kts 59°
2026-04-25 20:48 58.02477 12.86749 37001 ft 474 kts 59°
2026-04-25 20:48 58.05802 12.97500 37001 ft 474 kts 61°
2026-04-25 20:49 58.08940 13.08403 37002 ft 474 kts 62°
2026-04-25 20:49 58.12060 13.19264 36999 ft 474 kts 61°
2026-04-25 20:50 58.15232 13.30194 37000 ft 474 kts 61°
2026-04-25 20:50 58.18390 13.41007 37000 ft 474 kts 60°
2026-04-25 20:51 58.21587 13.51925 37000 ft 474 kts 60°
2026-04-25 20:51 58.24774 13.62783 37001 ft 474 kts 60°
2026-04-25 20:52 58.27439 13.71847 37000 ft 474 kts 61°
2026-04-25 20:52 58.31182 13.84548 37001 ft 474 kts 61°
2026-04-25 20:53 58.34398 13.95421 37000 ft 474 kts 60°
2026-04-25 20:53 58.37629 14.06310 37001 ft 474 kts 60°
2026-04-25 20:54 58.40886 14.17230 37001 ft 474 kts 60°
2026-04-25 20:54 58.44133 14.28094 37001 ft 474 kts 60°
2026-04-25 20:55 58.47261 14.39109 37002 ft 474 kts 62°
2026-04-25 20:55 58.50267 14.50289 37001 ft 474 kts 62°
2026-04-25 20:56 58.53269 14.61387 37001 ft 474 kts 62°
2026-04-25 20:56 58.56329 14.72561 37003 ft 474 kts 62°
2026-04-25 20:57 58.59391 14.83690 37003 ft 474 kts 62°
2026-04-25 20:57 58.62451 14.94793 37002 ft 474 kts 62°
2026-04-25 20:58 58.65522 15.05907 37003 ft 474 kts 62°
2026-04-25 20:58 58.68603 15.17021 37002 ft 474 kts 62°
2026-04-25 20:59 58.71706 15.28190 37002 ft 474 kts 62°
2026-04-25 20:59 58.74812 15.39341 37002 ft 474 kts 61°
2026-04-25 21:00 58.77400 15.48593 37001 ft 474 kts 61°
2026-04-25 21:01 58.82619 15.67145 37002 ft 474 kts 62°
2026-04-25 21:01 58.85660 15.78336 37001 ft 474 kts 64°
2026-04-25 21:02 58.88534 15.89711 37003 ft 474 kts 64°
2026-04-25 21:02 58.91435 16.01185 37003 ft 474 kts 64°
2026-04-25 21:03 58.94350 16.12555 37001 ft 474 kts 63°
2026-04-25 21:03 58.97269 16.23866 36999 ft 474 kts 63°
2026-04-25 21:04 59.00210 16.35239 37001 ft 474 kts 63°
2026-04-25 21:04 59.03171 16.46669 37001 ft 474 kts 63°
2026-04-25 21:05 59.06124 16.58026 37000 ft 474 kts 63°
2026-04-25 21:05 59.09102 16.69445 37000 ft 474 kts 63°
2026-04-25 21:06 59.12075 16.80806 37001 ft 474 kts 63°
2026-04-25 21:06 59.15060 16.92192 36994 ft 474 kts 64°
2026-04-25 21:07 59.17604 17.03964 37002 ft 474 kts 69°
2026-04-25 21:07 59.19957 17.15937 37002 ft 474 kts 69°
2026-04-25 21:08 59.22380 17.27816 37002 ft 474 kts 68°
2026-04-25 21:08 59.24860 17.39666 37001 ft 474 kts 67°
2026-04-25 21:09 59.28614 17.57466 36999 ft 474 kts 67°
2026-04-25 21:09 59.31121 17.69330 36998 ft 474 kts 68°
2026-04-25 21:10 59.33641 17.81218 36998 ft 474 kts 68°
2026-04-25 21:10 59.36162 17.93072 36998 ft 474 kts 67°
2026-04-25 21:11 59.38688 18.04903 36999 ft 474 kts 67°
2026-04-25 21:11 59.41241 18.16812 36998 ft 474 kts 67°
2026-04-25 21:12 59.43811 18.28712 36999 ft 474 kts 66°
2026-04-25 21:12 59.45953 18.38584 36999 ft 474 kts 66°
2026-04-25 21:13 59.48829 18.52553 37000 ft 474 kts 69°
2026-04-25 21:13 59.51102 18.64597 37001 ft 474 kts 69°
2026-04-25 21:14 59.53413 18.76770 37002 ft 474 kts 69°
2026-04-25 21:14 59.55748 18.88862 37002 ft 474 kts 69°
2026-04-25 21:15 59.58095 19.00934 37001 ft 474 kts 69°
2026-04-25 21:15 59.60456 19.13031 37000 ft 474 kts 69°
2026-04-25 21:16 59.62826 19.25137 37001 ft 474 kts 69°
2026-04-25 21:16 59.65209 19.37254 37001 ft 474 kts 68°
2026-04-25 21:17 59.67612 19.49418 37000 ft 474 kts 68°
2026-04-25 21:17 59.70028 19.61596 37001 ft 474 kts 68°
2026-04-25 21:18 59.72250 19.73773 36974 ft 474 kts 77°
2026-04-25 21:18 59.73477 19.86588 37004 ft 474 kts 80°
2026-04-25 21:19 59.74600 19.99456 37005 ft 474 kts 80°
2026-04-25 21:19 59.75677 20.12284 37002 ft 474 kts 80°
2026-04-25 21:20 59.76585 20.23059 37002 ft 474 kts 80°
2026-04-25 21:20 59.77863 20.37967 37001 ft 474 kts 80°
2026-04-25 21:21 59.78975 20.50804 37001 ft 474 kts 79°
2026-04-25 21:21 59.80098 20.63679 36999 ft 474 kts 79°
2026-04-25 21:22 59.81238 20.76619 37000 ft 474 kts 80°
2026-04-25 21:22 59.82379 20.89456 36998 ft 474 kts 80°
2026-04-25 21:23 59.83528 21.02234 36997 ft 474 kts 79°
2026-04-25 21:23 59.84699 21.15140 36999 ft 474 kts 79°
2026-04-25 21:24 59.85867 21.27868 36889 ft 470 kts 79°
2026-04-25 21:24 59.86461 21.34306 36098 ft 473 kts 79°
2026-04-25 21:24 59.87052 21.40614 35440 ft 471 kts 79°
2026-04-25 21:25 59.87655 21.46993 34654 ft 473 kts 79°
2026-04-25 21:25 59.88266 21.53460 33834 ft 474 kts 79°
2026-04-25 21:25 59.88844 21.59837 33032 ft 476 kts 80°
2026-04-25 21:25 59.89341 21.66386 32197 ft 477 kts 82°
2026-04-25 21:26 59.89786 21.72864 31365 ft 479 kts 83°
2026-04-25 21:26 59.90227 21.79429 30502 ft 481 kts 82°
2026-04-25 21:26 59.90673 21.85978 29633 ft 483 kts 82°
2026-04-25 21:26 59.91136 21.92579 28798 ft 483 kts 82°
2026-04-25 21:27 59.91604 21.99122 28060 ft 485 kts 82°
2026-04-25 21:27 59.92087 22.05792 27325 ft 489 kts 82°
2026-04-25 21:27 59.92578 22.12495 26608 ft 488 kts 82°
2026-04-25 21:27 59.93068 22.19127 25938 ft 490 kts 81°
2026-04-25 21:28 59.93565 22.25804 25305 ft 491 kts 81°
2026-04-25 21:28 59.94064 22.32496 24632 ft 490 kts 81°
2026-04-25 21:28 59.94562 22.39131 24005 ft 484 kts 81°
2026-04-25 21:28 59.95063 22.45755 23524 ft 479 kts 81°
2026-04-25 21:29 59.95558 22.52278 23169 ft 477 kts 81°
2026-04-25 21:29 59.96048 22.58701 22670 ft 476 kts 81°
2026-04-25 21:29 59.96546 22.65171 22088 ft 471 kts 82°
2026-04-25 21:29 59.97045 22.71625 21512 ft 465 kts 81°
2026-04-25 21:30 59.97536 22.77939 20971 ft 461 kts 81°
2026-04-25 21:30 59.98027 22.84203 20427 ft 456 kts 81°
2026-04-25 21:30 59.98513 22.90370 19889 ft 452 kts 81°
2026-04-25 21:30 59.98838 22.94481 19522 ft 450 kts 81°
2026-04-25 21:31 59.99494 23.02661 18778 ft 445 kts 81°
2026-04-25 21:31 59.99984 23.08716 18234 ft 442 kts 81°
2026-04-25 21:31 60.00470 23.14685 17677 ft 439 kts 81°
2026-04-25 21:31 60.00957 23.20684 17129 ft 435 kts 81°
2026-04-25 21:32 60.01371 23.26599 16585 ft 432 kts 83°
2026-04-25 21:32 60.01717 23.32532 16042 ft 429 kts 83°
2026-04-25 21:32 60.02039 23.38403 15507 ft 425 kts 83°
2026-04-25 21:32 60.02356 23.44224 14977 ft 422 kts 83°
2026-04-25 21:33 60.02678 23.49975 14452 ft 419 kts 83°
2026-04-25 21:33 60.03011 23.55748 13926 ft 416 kts 83°
2026-04-25 21:33 60.03348 23.61448 13406 ft 413 kts 83°
2026-04-25 21:33 60.03687 23.67104 12889 ft 410 kts 83°
2026-04-25 21:34 60.04021 23.72645 12383 ft 407 kts 83°
2026-04-25 21:34 60.04359 23.78233 11872 ft 404 kts 83°
2026-04-25 21:34 60.04694 23.83729 11371 ft 399 kts 83°
2026-04-25 21:34 60.05028 23.89213 10883 ft 393 kts 83°
2026-04-25 21:35 60.05358 23.94575 10426 ft 387 kts 83°
2026-04-25 21:35 60.05682 23.99837 9991 ft 381 kts 83°
2026-04-25 21:35 60.06005 24.05037 9571 ft 375 kts 83°
2026-04-25 21:35 60.06327 24.10199 9161 ft 370 kts 83°
2026-04-25 21:36 60.06645 24.15251 8767 ft 364 kts 83°
2026-04-25 21:36 60.06960 24.20215 8382 ft 359 kts 82°
2026-04-25 21:36 60.07272 24.25089 8005 ft 354 kts 82°
2026-04-25 21:36 60.07580 24.29894 7796 ft 345 kts 82°
2026-04-25 21:37 60.07881 24.34566 7585 ft 336 kts 82°
2026-04-25 21:37 60.08084 24.37681 7450 ft 331 kts 82°
2026-04-25 21:37 60.08477 24.43658 7187 ft 321 kts 82°
2026-04-25 21:37 60.08781 24.47984 7072 ft 311 kts 81°
2026-04-25 21:38 60.09075 24.52177 7131 ft 304 kts 82°
2026-04-25 21:38 60.09362 24.56424 6660 ft 303 kts 82°
2026-04-25 21:38 60.09629 24.60480 6356 ft 291 kts 82°
2026-04-25 21:38 60.09889 24.64435 6095 ft 280 kts 82°
2026-04-25 21:39 60.10138 24.68184 5878 ft 268 kts 83°
2026-04-25 21:39 60.10384 24.71818 5682 ft 257 kts 82°
2026-04-25 21:39 60.10623 24.75299 5494 ft 246 kts 82°
2026-04-25 21:39 60.10851 24.78606 5293 ft 240 kts 82°
2026-04-25 21:40 60.11077 24.81901 5101 ft 232 kts 82°
2026-04-25 21:40 60.11288 24.85019 4947 ft 224 kts 83°
2026-04-25 21:40 60.11474 24.88096 4720 ft 220 kts 84°
2026-04-25 21:40 60.11635 24.91112 4501 ft 215 kts 84°
2026-04-25 21:41 60.11787 24.94062 4292 ft 210 kts 84°
2026-04-25 21:41 60.11936 24.96846 4316 ft 196 kts 84°
2026-04-25 21:41 60.12214 24.99519 4302 ft 195 kts 71°
2026-04-25 21:41 60.12748 25.02047 4034 ft 194 kts 62°
2026-04-25 21:42 60.13377 25.04372 3821 ft 191 kts 60°
2026-04-25 21:42 60.14031 25.06712 3604 ft 192 kts 62°
2026-04-25 21:42 60.14659 25.09047 3453 ft 191 kts 63°
2026-04-25 21:42 60.15244 25.11410 3279 ft 186 kts 63°
2026-04-25 21:43 60.16129 25.13124 3162 ft 176 kts 21°
2026-04-25 21:43 60.17281 25.13320 3123 ft 165 kts 343°
2026-04-25 21:43 60.18333 25.12295 3061 ft 174 kts 327°
2026-04-25 21:43 60.19350 25.10900 2837 ft 177 kts 324°
2026-04-25 21:44 60.20370 25.09487 2878 ft 179 kts 327°
2026-04-25 21:44 60.21431 25.08209 2860 ft 179 kts 333°
2026-04-25 21:44 60.23566 25.06163 2216 ft 164 kts 334°
2026-04-25 21:45 60.24578 25.05154 1967 ft 158 kts 333°
2026-04-25 21:45 60.25232 25.04480 1782 ft 159 kts 332°
2026-04-25 21:45 60.26512 25.03114 1422 ft 157 kts 332°
2026-04-25 21:45 60.27470 25.02119 1124 ft 158 kts 333°
2026-04-25 21:46 60.28456 25.01135 788 ft 157 kts 334°
2026-04-25 21:46 60.29422 25.00176 514 ft 154 kts 333°
2026-04-25 21:46 60.30371 24.99180 300 ft 154 kts 332°
2026-04-25 21:46 60.31305 24.98219 193 ft 139 kts 333°
2026-04-25 21:47 60.31960 24.97546 192 ft 76 kts 333°
2026-04-25 21:47 60.32296 24.97201 192 ft 42 kts 332°
2026-04-25 21:47 60.32375 24.96939 192 ft 18 kts 237°
2026-04-25 21:47 60.32321 24.96821 192 ft 9 kts 226°
2026-04-25 21:48 60.32310 24.96797 192 ft 0 kts 226°
2026-04-25 21:48 60.32295 24.96767 192 ft 8 kts 226°
2026-04-25 21:48 60.32231 24.96625 192 ft 18 kts 228°
2026-04-25 21:48 60.32136 24.96415 192 ft 21 kts 228°
2026-04-25 21:49 60.32025 24.96172 192 ft 24 kts 227°
2026-04-25 21:49 60.31934 24.95976 192 ft 12 kts 227°
2026-04-25 21:49 60.31865 24.95820 192 ft 18 kts 228°
2026-04-25 21:49 60.31766 24.95603 192 ft 22 kts 227°
2026-04-25 21:50 60.31695 24.95544 192 ft 6 kts 139°
2026-04-25 21:50 60.31654 24.95628 192 ft 10 kts 140°
2026-04-25 21:50 60.31590 24.95641 192 ft 10 kts 215°
2026-04-25 21:50 60.31549 24.95568 192 ft 13 kts 223°
2026-04-25 21:51 60.31451 24.95452 192 ft 11 kts 149°
2026-04-25 21:51 60.31423 24.95499 192 ft 1 kts 138°
2026-04-25 21:51 60.31422 24.95500 192 ft 0 kts 138°